Location: Trebic
(49.2170°N, 15.8830°E)
Time: 20:46:27
(UTC+02:00)

Transit 4A - Pass Details

Date: 30 August 2019
Orbit: 866 x 978 km, 66.8° (Epoch: 14 October)

Event Time Altitude Azimuth Distance (km) Brightness Sun altitude
Rises 19:22:23 0° 256° (WSW) 3,675 12.4 2.7°
Reaches altitude 10° 19:25:20 10° 267° (W) 2,728 12.3 2.2°
Maximum altitude 19:30:50 29° 326° (NNW) 1,695 10.0 1.3°
Drops below altitude 10° 19:36:17 10° 26° (NNE) 2,702 10.2 0.4°
Sets 19:39:12 0° 38° (NE) 3,635 10.7 0.0°
